| time (UTC) | temp C | wind direction | speed KPH | gust KPH | rain 1hr cm | rain 24hr cm | rain mn cm | humidity % | barometer mb |
| 20260508013605 | 13 | 137 | 0.0 | 0.0 | 0.00 | 0.00 | 0.00 | 55 | 1014.8 |
| 20260508013104 | 13 | 137 | 0.0 | 0.0 | 0.00 | 0.00 | 0.00 | 55 | 1014.8 |
| 20260508012605 | 13 | 137 | 0.0 | 0.0 | 0.00 | 0.00 | 0.00 | 55 | 1014.9 |
| 20260508012104 | 14 | 137 | 0.0 | 0.0 | 0.00 | 0.00 | 0.00 | 55 | 1014.8 |
| 20260508011604 | 14 | 137 | 0.0 | 0.0 | 0.00 | 0.00 | 0.00 | 56 | 1014.9 |
| 20260508011104 | 14 | 137 | 0.0 | 3.2 | 0.00 | 0.00 | 0.00 | 56 | 1015.0 |
| 20260508010605 | 14 | 137 | 0.0 | 4.8 | 0.00 | 0.00 | 0.00 | 56 | 1015.1 |
| 20260508010105 | 14 | 134 | 3.2 | 4.8 | 0.00 | 0.00 | 0.00 | 56 | 1015.1 |
| 20260508005830 | 14 | 134 | 0.0 | 3.2 | 0.00 | 0.00 | 0.00 | 56 | 1015.0 |
| 20260508005104 | 14 | 134 | 0.0 | 3.2 | 0.00 | 0.00 | 0.00 | 56 | 1015.0 |
| 20260508004824 | 14 | 134 | 0.0 | 1.6 | 0.00 | 0.00 | 0.00 | 56 | 1014.9 |
| 20260508004104 | 14 | 134 | 0.0 | 0.0 | 0.00 | 0.00 | 0.00 | 55 | 1014.9 |
| 20260508003605 | 15 | 134 | 0.0 | 0.0 | 0.00 | 0.00 | 0.00 | 56 | 1014.9 |
| 20260508003105 | 15 | 134 | 0.0 | 0.0 | 0.00 | 0.00 | 0.00 | 56 | 1015.0 |
| 20260508003055 | 14 | 134 | 0.0 | 3.2 | 0.00 | 0.00 | 0.00 | 55 | 1015.0 |
| 20260508002549 | 15 | 134 | 0.0 | 3.2 | 0.00 | 0.00 | 0.00 | 55 | 1015.1 |
| 20260508001826 | 15 | 134 | 0.0 | 4.8 | 0.00 | 0.00 | 0.00 | 55 | 1015.1 |
| 20260508001104 | 15 | 134 | 1.6 | 4.8 | 0.00 | 0.00 | 0.00 | 55 | 1015.0 |
| 20260508000605 | 15 | 34 | 0.0 | 1.6 | 0.00 | 0.00 | 0.00 | 55 | 1015.0 |
| 20260508000544 | 15 | 32 | 0.0 | 1.6 | 0.00 | 0.00 | 0.00 | 55 | 1015.0 |
| 20260507235605 | 15 | 32 | 0.0 | 1.6 | 0.00 | 0.00 | 0.00 | 55 | 1015.0 |
| 20260507235105 | 15 | 32 | 1.6 | 1.6 | 0.00 | 0.00 | 0.00 | 54 | 1015.0 |
| 20260507234605 | 15 | 32 | 0.0 | 0.0 | 0.00 | 0.00 | 0.00 | 54 | 1015.1 |
| 20260507234104 | 15 | 32 | 0.0 | 4.8 | 0.00 | 0.00 | 0.00 | 54 | 1015.1 |
| 20260507233605 | 15 | 32 | 3.2 | 6.4 | 0.00 | 0.00 | 0.00 | 54 | 1015.0 |
| 20260507233104 | 15 | 35 | 3.2 | 6.4 | 0.00 | 0.00 | 0.00 | 54 | 1015.0 |
| 20260507232604 | 15 | 41 | 3.2 | 4.8 | 0.00 | 0.00 | 0.00 | 54 | 1015.1 |
| 20260507232104 | 15 | 41 | 0.0 | 0.0 | 0.00 | 0.00 | 0.00 | 54 | 1015.2 |
| 20260507231824 | 15 | 41 | 0.0 | 0.0 | 0.00 | 0.00 | 0.00 | 54 | 1015.1 |
| 20260507231331 | 15 | 41 | 0.0 | 0.0 | 0.00 | 0.00 | 0.00 | 54 | 1015.1 |
| 20260507230604 | 15 | 41 | 0.0 | 0.0 | 0.00 | 0.00 | 0.00 | 53 | 1015.1 |
| 20260507230105 | 15 | 41 | 0.0 | 0.0 | 0.00 | 0.00 | 0.00 | 53 | 1015.2 |
| 20260507225605 | 15 | 41 | 0.0 | 0.0 | 0.00 | 0.00 | 0.00 | 53 | 1015.2 |
| 20260507225104 | 15 | 41 | 0.0 | 1.6 | 0.00 | 0.00 | 0.00 | 53 | 1015.1 |
| 20260507224605 | 15 | 41 | 0.0 | 1.6 | 0.00 | 0.00 | 0.00 | 53 | 1015.1 |
| 20260507224104 | 15 | 41 | 0.0 | 3.2 | 0.00 | 0.00 | 0.00 | 53 | 1015.1 |
| 20260507223604 | 15 | 41 | 0.0 | 6.4 | 0.00 | 0.00 | 0.00 | 53 | 1015.0 |
| 20260507223104 | 15 | 41 | 3.2 | 6.4 | 0.00 | 0.00 | 0.00 | 53 | 1015.0 |
| 20260507222604 | 15 | 44 | 1.6 | 6.4 | 0.00 | 0.00 | 0.00 | 53 | 1014.9 |
| 20260507222105 | 15 | 44 | 0.0 | 6.4 | 0.00 | 0.00 | 0.00 | 53 | 1014.9 |
| 20260507221828 | 15 | 345 | 3.2 | 4.8 | 0.00 | 0.00 | 0.00 | 53 | 1014.9 |
| 20260507221104 | 15 | 341 | 1.6 | 4.8 | 0.00 | 0.00 | 0.00 | 53 | 1014.9 |
| 20260507220605 | 15 | 341 | 3.2 | 4.8 | 0.00 | 0.00 | 0.00 | 53 | 1014.9 |
| 20260507220105 | 15 | 338 | 3.2 | 4.8 | 0.00 | 0.00 | 0.00 | 53 | 1014.9 |
| 20260507215828 | 15 | 334 | 3.2 | 4.8 | 0.00 | 0.00 | 0.00 | 53 | 1014.9 |
| 20260507215105 | 15 | 336 | 3.2 | 4.8 | 0.00 | 0.00 | 0.00 | 54 | 1015.0 |
| 20260507214605 | 15 | 336 | 3.2 | 4.8 | 0.00 | 0.00 | 0.00 | 53 | 1014.9 |
| 20260507214105 | 15 | 327 | 0.0 | 1.6 | 0.00 | 0.00 | 0.00 | 53 | 1014.9 |
| 20260507213604 | 15 | 327 | 0.0 | 1.6 | 0.00 | 0.00 | 0.00 | 54 | 1014.9 |
| 20260507213321 | 15 | 327 | 0.0 | 3.2 | 0.00 | 0.00 | 0.00 | 54 | 1014.9 |
| 20260507212604 | 15 | 327 | 1.6 | 6.4 | 0.00 | 0.00 | 0.00 | 54 | 1014.8 |
| 20260507212105 | 15 | 327 | 4.8 | 6.4 | 0.00 | 0.00 | 0.00 | 55 | 1014.7 |
| 20260507211830 | 15 | 327 | 3.2 | 6.4 | 0.00 | 0.00 | 0.00 | 55 | 1014.7 |
| 20260507211105 | 15 | 175 | 0.0 | 3.2 | 0.00 | 0.00 | 0.00 | 55 | 1014.7 |
| 20260507210604 | 15 | 175 | 3.2 | 3.2 | 0.00 | 0.00 | 0.00 | 55 | 1014.7 |
| 20260507210104 | 16 | 175 | 0.0 | 0.0 | 0.00 | 0.00 | 0.00 | 54 | 1014.7 |
| 20260507205605 | 16 | 175 | 0.0 | 0.0 | 0.00 | 0.00 | 0.00 | 54 | 1014.7 |
| 20260507205105 | 16 | 175 | 0.0 | 1.6 | 0.00 | 0.00 | 0.00 | 54 | 1014.7 |
| 20260507204604 | 16 | 175 | 0.0 | 1.6 | 0.00 | 0.00 | 0.00 | 54 | 1014.7 |
| 20260507204104 | 16 | 175 | 0.0 | 1.6 | 0.00 | 0.00 | 0.00 | 54 | 1014.7 |
| 20260507203604 | 16 | 173 | 0.0 | 0.0 | 0.00 | 0.00 | 0.00 | 54 | 1014.7 |
| 20260507203104 | 16 | 175 | 0.0 | 1.6 | 0.00 | 0.00 | 0.00 | 54 | 1014.6 |
| 20260507202605 | 16 | 175 | 0.0 | 3.2 | 0.00 | 0.00 | 0.00 | 54 | 1014.6 |
| 20260507202104 | 16 | 175 | 1.6 | 3.2 | 0.00 | 0.00 | 0.00 | 54 | 1014.5 |
| 20260507201604 | 16 | 175 | 1.6 | 3.2 | 0.00 | 0.00 | 0.00 | 54 | 1014.4 |
| 20260507201105 | 16 | 175 | 1.6 | 3.2 | 0.00 | 0.00 | 0.00 | 53 | 1014.3 |
| 20260507200604 | 16 | 175 | 0.0 | 0.0 | 0.00 | 0.00 | 0.00 | 53 | 1014.3 |
| 20260507200105 | 16 | 175 | 0.0 | 6.4 | 0.00 | 0.00 | 0.00 | 53 | 1014.1 |
| 20260507195831 | 16 | 0 | 0.0 | 6.4 | 0.00 | 0.00 | 0.00 | 53 | 1014.2 |
| 20260507195331 | 16 | 0 | 3.2 | 6.4 | 0.00 | 0.00 | 0.00 | 53 | 1014.1 |
| 20260507194605 | 16 | 0 | 4.8 | 6.4 | 0.00 | 0.00 | 0.00 | 53 | 1014.0 |
| 20260507194104 | 16 | 0 | 0.0 | 4.8 | 0.00 | 0.00 | 0.00 | 52 | 1013.9 |
| 20260507193605 | 16 | 0 | 3.2 | 8.0 | 0.00 | 0.00 | 0.00 | 51 | 1013.9 |
| 20260507193105 | 17 | 0 | 3.2 | 8.0 | 0.00 | 0.00 | 0.00 | 50 | 1013.9 |
| 20260507192604 | 17 | 0 | 4.8 | 6.4 | 0.00 | 0.00 | 0.00 | 47 | 1013.8 |
| 20260507192105 | 17 | 0 | 1.6 | 3.2 | 0.00 | 0.00 | 0.00 | 46 | 1013.6 |
| 20260507191605 | 17 | 0 | 0.0 | 4.8 | 0.00 | 0.00 | 0.00 | 47 | 1013.5 |
| 20260507191104 | 17 | 0 | 1.6 | 8.0 | 0.00 | 0.00 | 0.00 | 47 | 1013.6 |
| 20260507190605 | 17 | 0 | 4.8 | 8.0 | 0.00 | 0.00 | 0.00 | 47 | 1013.6 |
| 20260507190326 | 18 | 0 | 0.0 | 3.2 | 0.00 | 0.00 | 0.00 | 46 | 1013.5 |
| 20260507185604 | 18 | 0 | 0.0 | 3.2 | 0.00 | 0.00 | 0.00 | 45 | 1013.4 |
| 20260507185329 | 18 | 0 | 1.6 | 4.8 | 0.00 | 0.00 | 0.00 | 45 | 1013.2 |
| 20260507184604 | 18 | 0 | 3.2 | 4.8 | 0.00 | 0.00 | 0.00 | 44 | 1013.1 |
| 20260507184103 | 18 | 0 | 3.2 | 4.8 | 0.00 | 0.00 | 0.00 | 44 | 1013.1 |
| 20260507183604 | 18 | 0 | 1.6 | 3.2 | 0.00 | 0.00 | 0.00 | 45 | 1013.2 |
| 20260507183105 | 18 | 0 | 1.6 | 4.8 | 0.00 | 0.00 | 0.00 | 46 | 1013.1 |
| 20260507182604 | 18 | 0 | 3.2 | 4.8 | 0.00 | 0.00 | 0.00 | 45 | 1013.2 |
| 20260507182105 | 18 | 0 | 4.8 | 6.4 | 0.00 | 0.00 | 0.00 | 46 | 1013.1 |
| 20260507181604 | 18 | 0 | 4.8 | 6.4 | 0.00 | 0.00 | 0.00 | 46 | 1013.0 |
| 20260507181326 | 18 | 0 | 3.2 | 8.0 | 0.00 | 0.00 | 0.00 | 46 | 1013.0 |
| 20260507180604 | 18 | 0 | 6.4 | 8.0 | 0.00 | 0.00 | 0.00 | 46 | 1012.9 |
| 20260507180105 | 18 | 0 | 4.8 | 8.0 | 0.00 | 0.00 | 0.00 | 46 | 1012.9 |
| 20260507175604 | 18 | 0 | 3.2 | 8.0 | 0.00 | 0.00 | 0.00 | 46 | 1012.9 |
| 20260507175104 | 18 | 0 | 6.4 | 9.7 | 0.00 | 0.00 | 0.00 | 45 | 1012.9 |
| 20260507174605 | 18 | 0 | 8.0 | 14.5 | 0.00 | 0.00 | 0.00 | 45 | 1012.9 |
| 20260507174105 | 19 | 0 | 9.7 | 14.5 | 0.00 | 0.00 | 0.00 | 43 | 1012.9 |
| 20260507173605 | 19 | 0 | 9.7 | 11.3 | 0.00 | 0.00 | 0.00 | 42 | 1012.9 |
| 20260507173105 | 20 | 0 | 8.0 | 9.7 | 0.00 | 0.00 | 0.00 | 41 | 1012.8 |
| 20260507172832 | 20 | 0 | 3.2 | 6.4 | 0.00 | 0.00 | 0.00 | 37 | 1012.8 |
| 20260507172104 | 21 | 0 | 3.2 | 4.8 | 0.00 | 0.00 | 0.00 | 37 | 1012.7 |
| 20260507172041 | 21 | 0 | 3.2 | 4.8 | 0.00 | 0.00 | 0.00 | 36 | 1012.7 |
| 20260507171104 | 21 | 0 | 1.6 | 6.4 | 0.00 | 0.00 | 0.00 | 35 | 1012.7 |
| 20260507170823 | 20 | 0 | 1.6 | 6.4 | 0.00 | 0.00 | 0.00 | 35 | 1012.7 |
| 20260507170105 | 21 | 0 | 3.2 | 6.4 | 0.00 | 0.00 | 0.00 | 36 | 1012.6 |
| 20260507165605 | 21 | 0 | 1.6 | 6.4 | 0.00 | 0.00 | 0.00 | 32 | 1012.7 |
| 20260507165104 | 21 | 0 | 4.8 | 6.4 | 0.00 | 0.00 | 0.00 | 32 | 1012.7 |
| 20260507164605 | 21 | 0 | 1.6 | 8.0 | 0.00 | 0.00 | 0.00 | 31 | 1012.6 |
| 20260507164105 | 22 | 149 | 6.4 | 8.0 | 0.00 | 0.00 | 0.00 | 31 | 1012.6 |
| 20260507163604 | 21 | 172 | 0.0 | 6.4 | 0.00 | 0.00 | 0.00 | 32 | 1012.6 |
| 20260507163105 | 21 | 166 | 3.2 | 6.4 | 0.00 | 0.00 | 0.00 | 32 | 1012.7 |
| 20260507162604 | 21 | 238 | 4.8 | 8.0 | 0.00 | 0.00 | 0.00 | 34 | 1012.6 |
| 20260507162104 | 21 | 200 | 3.2 | 8.0 | 0.00 | 0.00 | 0.00 | 34 | 1012.6 |
| 20260507161604 | 21 | 237 | 4.8 | 8.0 | 0.00 | 0.00 | 0.00 | 34 | 1012.6 |
| 20260507161105 | 22 | 190 | 3.2 | 6.4 | 0.00 | 0.00 | 0.00 | 32 | 1012.7 |
| 20260507160604 | 22 | 133 | 0.0 | 9.7 | 0.00 | 0.00 | 0.00 | 31 | 1012.6 |
| 20260507160105 | 22 | 165 | 3.2 | 9.7 | 0.00 | 0.00 | 0.00 | 32 | 1012.6 |
| 20260507155830 | 21 | 173 | 3.2 | 8.0 | 0.00 | 0.00 | 0.00 | 33 | 1012.6 |
| 20260507155104 | 21 | 193 | 3.2 | 8.0 | 0.00 | 0.00 | 0.00 | 32 | 1012.5 |
| 20260507154605 | 21 | 189 | 3.2 | 8.0 | 0.00 | 0.00 | 0.00 | 34 | 1012.6 |
| 20260507154332 | 21 | 165 | 6.4 | 9.7 | 0.00 | 0.00 | 0.00 | 34 | 1012.6 |
| 20260507153604 | 21 | 193 | 4.8 | 9.7 | 0.00 | 0.00 | 0.00 | 33 | 1012.6 |
| 20260507153332 | 22 | 159 | 3.2 | 6.4 | 0.00 | 0.00 | 0.00 | 34 | 1012.6 |
| 20260507152604 | 22 | 138 | 3.2 | 6.4 | 0.00 | 0.00 | 0.00 | 33 | 1012.6 |
| 20260507152104 | 22 | 169 | 3.2 | 6.4 | 0.00 | 0.00 | 0.00 | 33 | 1012.6 |
| 20260507151605 | 22 | 90 | 3.2 | 6.4 | 0.00 | 0.00 | 0.00 | 35 | 1012.5 |
| 20260507151104 | 21 | 135 | 3.2 | 8.0 | 0.00 | 0.00 | 0.00 | 36 | 1012.6 |
| 20260507150604 | 22 | 243 | 3.2 | 8.0 | 0.00 | 0.00 | 0.00 | 35 | 1012.6 |
| 20260507150104 | 22 | 59 | 4.8 | 8.0 | 0.00 | 0.00 | 0.00 | 35 | 1012.7 |
| 20260507145604 | 22 | 145 | 3.2 | 6.4 | 0.00 | 0.00 | 0.00 | 34 | 1012.7 |
| 20260507145105 | 22 | 161 | 3.2 | 8.0 | 0.00 | 0.00 | 0.00 | 36 | 1012.7 |
| 20260507144604 | 21 | 231 | 4.8 | 8.0 | 0.00 | 0.00 | 0.00 | 36 | 1012.7 |
| 20260507144033 | 21 | 158 | 3.2 | 8.0 | 0.00 | 0.00 | 0.00 | 35 | 1012.7 |
| 20260507143533 | 22 | 173 | 1.6 | 6.4 | 0.00 | 0.00 | 0.00 | 34 | 1012.8 |
| 20260507143031 | 22 | 71 | 3.2 | 6.4 | 0.00 | 0.00 | 0.00 | 35 | 1012.8 |
| 20260507142523 | 22 | 109 | 1.6 | 6.4 | 0.00 | 0.00 | 0.00 | 35 | 1012.8 |
| 20260507142023 | 21 | 93 | 1.6 | 6.4 | 0.00 | 0.00 | 0.00 | 36 | 1012.9 |
| 20260507141518 | 21 | 189 | 3.2 | 8.0 | 0.00 | 0.00 | 0.00 | 36 | 1013.0 |
| 20260507141016 | 21 | 142 | 4.8 | 8.0 | 0.00 | 0.00 | 0.00 | 36 | 1013.0 |
| 20260507140736 | 20 | 235 | 1.6 | 8.0 | 0.00 | 0.00 | 0.00 | 37 | 1013.1 |
| 20260507140014 | 20 | 230 | 6.4 | 14.5 | 0.00 | 0.00 | 0.00 | 37 | 1013.1 |
| 20260507135511 | 21 | 231 | 4.8 | 17.7 | 0.00 | 0.00 | 0.00 | 38 | 1013.1 |
| 20260507135012 | 21 | 210 | 8.0 | 17.7 | 0.00 | 0.00 | 0.00 | 36 | 1013.1 |
| 20260507134738 | 21 | 154 | 6.4 | 9.7 | 0.00 | 0.00 | 0.00 | 36 | 1013.2 |
| 20260507134012 | 21 | 272 | 3.2 | 9.7 | 0.00 | 0.00 | 0.00 | 38 | 1013.2 |
| 20260507133511 | 20 | 271 | 6.4 | 11.3 | 0.00 | 0.00 | 0.00 | 39 | 1013.2 |
| 20260507133014 | 20 | 233 | 8.0 | 11.3 | 0.00 | 0.00 | 0.00 | 39 | 1013.3 |
| 20260507132511 | 21 | 0 | 3.2 | 8.0 | 0.00 | 0.00 | 0.00 | 37 | 1013.3 |
| 20260507132012 | 21 | 0 | 4.8 | 9.7 | 0.00 | 0.00 | 0.00 | 38 | 1013.4 |
| 20260507131511 | 20 | 0 | 3.2 | 11.3 | 0.00 | 0.00 | 0.00 | 37 | 1013.4 |
| 20260507131011 | 20 | 0 | 6.4 | 14.5 | 0.00 | 0.00 | 0.00 | 39 | 1013.4 |
| 20260507130511 | 20 | 0 | 4.8 | 14.5 | 0.00 | 0.00 | 0.00 | 38 | 1013.5 |
| 20260507130231 | 20 | 0 | 4.8 | 9.7 | 0.00 | 0.00 | 0.00 | 39 | 1013.6 |
| 20260507125511 | 20 | 0 | 6.4 | 9.7 | 0.00 | 0.00 | 0.00 | 37 | 1013.5 |
| 20260507125011 | 21 | 0 | 6.4 | 9.7 | 0.00 | 0.00 | 0.00 | 40 | 1013.6 |
| 20260507124511 | 20 | 0 | 4.8 | 8.0 | 0.00 | 0.00 | 0.00 | 39 | 1013.6 |
| 20260507124010 | 20 | 0 | 4.8 | 8.0 | 0.00 | 0.00 | 0.00 | 35 | 1013.6 |
| 20260507123510 | 20 | 0 | 3.2 | 9.7 | 0.00 | 0.00 | 0.00 | 35 | 1013.7 |
| 20260507123010 | 20 | 0 | 3.2 | 14.5 | 0.00 | 0.00 | 0.00 | 38 | 1013.8 |
| 20260507122510 | 20 | 0 | 4.8 | 14.5 | 0.00 | 0.00 | 0.00 | 37 | 1013.8 |
| 20260507122010 | 20 | 0 | 6.4 | 14.5 | 0.00 | 0.00 | 0.00 | 37 | 1013.7 |
| 20260507121510 | 20 | 0 | 6.4 | 14.5 | 0.00 | 0.00 | 0.00 | 40 | 1013.7 |
| 20260507121010 | 20 | 0 | 4.8 | 9.7 | 0.00 | 0.00 | 0.00 | 38 | 1013.8 |
| 20260507120510 | 20 | 0 | 4.8 | 11.3 | 0.00 | 0.00 | 0.00 | 40 | 1013.8 |
| 20260507120010 | 20 | 0 | 3.2 | 11.3 | 0.00 | 0.00 | 0.00 | 40 | 1013.9 |
| 20260507115509 | 20 | 0 | 4.8 | 11.3 | 0.00 | 0.00 | 0.00 | 38 | 1013.8 |
| 20260507115009 | 19 | 0 | 6.4 | 16.1 | 0.00 | 0.00 | 0.00 | 42 | 1013.9 |
| 20260507114509 | 20 | 0 | 9.7 | 16.1 | 0.00 | 0.00 | 0.00 | 42 | 1014.0 |
| 20260507114009 | 20 | 0 | 3.2 | 11.3 | 0.00 | 0.00 | 0.00 | 41 | 1014.0 |
| 20260507113509 | 18 | 0 | 4.8 | 9.7 | 0.00 | 0.00 | 0.00 | 43 | 1014.1 |
| 20260507113233 | 18 | 0 | 9.7 | 9.7 | 0.00 | 0.00 | 0.00 | 42 | 1014.1 |
| 20260507112735 | 18 | 0 | 1.6 | 9.7 | 0.00 | 0.00 | 0.00 | 44 | 1014.2 |
| 20260507112008 | 18 | 0 | 3.2 | 9.7 | 0.00 | 0.00 | 0.00 | 45 | 1014.2 |
| 20260507111509 | 18 | 0 | 3.2 | 9.7 | 0.00 | 0.00 | 0.00 | 42 | 1014.3 |
| 20260507111008 | 18 | 0 | 6.4 | 9.7 | 0.00 | 0.00 | 0.00 | 44 | 1014.3 |
| 20260507110508 | 18 | 0 | 3.2 | 9.7 | 0.00 | 0.00 | 0.00 | 42 | 1014.4 |
| 20260507110009 | 18 | 0 | 3.2 | 9.7 | 0.00 | 0.00 | 0.00 | 42 | 1014.5 |
| 20260507105508 | 18 | 0 | 6.4 | 9.7 | 0.00 | 0.00 | 0.00 | 42 | 1014.4 |
| 20260507105008 | 18 | 0 | 3.2 | 9.7 | 0.00 | 0.00 | 0.00 | 44 | 1014.5 |
| 20260507104508 | 19 | 0 | 3.2 | 9.7 | 0.00 | 0.00 | 0.00 | 43 | 1014.5 |
| 20260507104008 | 18 | 0 | 6.4 | 9.7 | 0.00 | 0.00 | 0.00 | 45 | 1014.5 |
| 20260507103508 | 18 | 0 | 4.8 | 14.5 | 0.00 | 0.00 | 0.00 | 47 | 1014.5 |
| 20260507103007 | 18 | 0 | 8.0 | 14.5 | 0.00 | 0.00 | 0.00 | 47 | 1014.6 |
| 20260507102730 | 18 | 0 | 4.8 | 11.3 | 0.00 | 0.00 | 0.00 | 46 | 1014.7 |
| 20260507102459 | 18 | 0 | 6.4 | 11.3 | 0.00 | 0.00 | 0.00 | 47 | 1014.7 |
| 20260507101507 | 17 | 0 | 3.2 | 11.3 | 0.00 | 0.00 | 0.00 | 47 | 1014.7 |
| 20260507101007 | 17 | 0 | 8.0 | 11.3 | 0.00 | 0.00 | 0.00 | 45 | 1014.8 |
| 20260507100507 | 17 | 0 | 4.8 | 6.4 | 0.00 | 0.00 | 0.00 | 44 | 1014.8 |
| 20260507100007 | 17 | 0 | 1.6 | 6.4 | 0.00 | 0.00 | 0.00 | 44 | 1014.7 |
| 20260507095507 | 18 | 0 | 1.6 | 9.7 | 0.00 | 0.00 | 0.00 | 44 | 1014.7 |
| 20260507095007 | 18 | 0 | 6.4 | 9.7 | 0.00 | 0.00 | 0.00 | 44 | 1014.6 |
| 20260507094727 | 18 | 0 | 6.4 | 9.7 | 0.00 | 0.00 | 0.00 | 45 | 1014.6 |
| 20260507094007 | 18 | 0 | 4.8 | 6.4 | 0.00 | 0.00 | 0.00 | 46 | 1014.6 |
| 20260507093726 | 18 | 0 | 3.2 | 8.0 | 0.00 | 0.00 | 0.00 | 45 | 1014.6 |
| 20260507093229 | 18 | 0 | 3.2 | 11.3 | 0.00 | 0.00 | 0.00 | 45 | 1014.5 |
| 20260507092507 | 18 | 0 | 4.8 | 11.3 | 0.00 | 0.00 | 0.00 | 46 | 1014.5 |
| 20260507092223 | 18 | 0 | 3.2 | 4.8 | 0.00 | 0.00 | 0.00 | 45 | 1014.6 |
| 20260507091507 | 18 | 0 | 3.2 | 8.0 | 0.00 | 0.00 | 0.00 | 45 | 1014.6 |
| 20260507091005 | 18 | 0 | 3.2 | 8.0 | 0.00 | 0.00 | 0.00 | 45 | 1014.6 |
| 20260507090507 | 18 | 0 | 0.0 | 8.0 | 0.00 | 0.00 | 0.00 | 46 | 1014.6 |
| 20260507090006 | 17 | 0 | 4.8 | 11.3 | 0.00 | 0.00 | 0.00 | 46 | 1014.6 |
| 20260507085506 | 17 | 0 | 4.8 | 11.3 | 0.00 | 0.00 | 0.00 | 46 | 1014.5 |
| 20260507085005 | 18 | 0 | 1.6 | 11.3 | 0.00 | 0.00 | 0.00 | 46 | 1014.5 |
| 20260507084504 | 17 | 0 | 8.0 | 11.3 | 0.00 | 0.00 | 0.00 | 46 | 1014.5 |
| 20260507084004 | 17 | 0 | 6.4 | 8.0 | 0.00 | 0.00 | 0.00 | 47 | 1014.5 |
| 20260507083504 | 17 | 0 | 3.2 | 8.0 | 0.00 | 0.00 | 0.00 | 48 | 1014.5 |
| 20260507083005 | 16 | 0 | 3.2 | 8.0 | 0.00 | 0.00 | 0.00 | 47 | 1014.4 |
| 20260507082503 | 17 | 0 | 3.2 | 8.0 | 0.00 | 0.00 | 0.00 | 48 | 1014.4 |
| 20260507082004 | 17 | 0 | 3.2 | 6.4 | 0.00 | 0.00 | 0.00 | 47 | 1014.5 |
| 20260507081723 | 17 | 0 | 3.2 | 6.4 | 0.00 | 0.00 | 0.00 | 48 | 1014.5 |
| 20260507081003 | 16 | 0 | 3.2 | 6.4 | 0.00 | 0.00 | 0.00 | 49 | 1014.5 |
| 20260507080503 | 16 | 0 | 3.2 | 6.4 | 0.00 | 0.00 | 0.00 | 48 | 1014.5 |
| 20260507080005 | 16 | 0 | 1.6 | 8.0 | 0.00 | 0.00 | 0.00 | 50 | 1014.5 |
| 20260507075505 | 16 | 0 | 3.2 | 8.0 | 0.00 | 0.00 | 0.00 | 50 | 1014.4 |
| 20260507075004 | 16 | 0 | 1.6 | 9.7 | 0.00 | 0.00 | 0.00 | 50 | 1014.5 |
| 20260507074727 | 16 | 0 | 6.4 | 9.7 | 0.00 | 0.00 | 0.00 | 50 | 1014.5 |
| 20260507074004 | 15 | 0 | 3.2 | 9.7 | 0.00 | 0.00 | 0.00 | 51 | 1014.4 |
| 20260507073504 | 15 | 0 | 6.4 | 9.7 | 0.00 | 0.00 | 0.00 | 50 | 1014.5 |
| 20260507073005 | 15 | 0 | 4.8 | 6.4 | 0.00 | 0.00 | 0.00 | 50 | 1014.5 |
| 20260507072504 | 15 | 0 | 3.2 | 9.7 | 0.00 | 0.00 | 0.00 | 49 | 1014.4 |
| 20260507072003 | 15 | 0 | 3.2 | 9.7 | 0.00 | 0.00 | 0.00 | 50 | 1014.4 |
| 20260507071505 | 15 | 0 | 4.8 | 9.7 | 0.00 | 0.00 | 0.00 | 49 | 1014.4 |
| 20260507071004 | 15 | 0 | 4.8 | 9.7 | 0.00 | 0.00 | 0.00 | 49 | 1014.4 |
| 20260507070731 | 15 | 0 | 0.0 | 4.8 | 0.00 | 0.00 | 0.00 | 49 | 1014.3 |
| 20260507070009 | 15 | 0 | 1.6 | 4.8 | 0.00 | 0.00 | 0.00 | 48 | 1014.3 |
| 20260507065503 | 15 | 0 | 1.6 | 4.8 | 0.00 | 0.00 | 0.00 | 49 | 1014.2 |
| 20260507065004 | 15 | 0 | 1.6 | 3.2 | 0.00 | 0.00 | 0.00 | 49 | 1014.3 |
| 20260507064504 | 15 | 0 | 0.0 | 0.0 | 0.00 | 0.00 | 0.00 | 49 | 1014.2 |
| 20260507064002 | 14 | 0 | 0.0 | 0.0 | 0.00 | 0.00 | 0.00 | 50 | 1014.2 |
| 20260507063502 | 14 | 0 | 0.0 | 0.0 | 0.00 | 0.00 | 0.00 | 49 | 1014.1 |
| 20260507063004 | 13 | 0 | 0.0 | 0.0 | 0.00 | 0.00 | 0.00 | 49 | 1014.1 |
| 20260507062731 | 13 | 0 | 0.0 | 3.2 | 0.00 | 0.00 | 0.00 | 50 | 1014.1 |
| 20260507062222 | 13 | 0 | 0.0 | 6.4 | 0.00 | 0.00 | 0.00 | 50 | 1014.1 |
| 20260507061502 | 13 | 0 | 3.2 | 6.4 | 0.00 | 0.00 | 0.00 | 50 | 1014.0 |
| 20260507061002 | 12 | 0 | 0.0 | 8.0 | 0.00 | 0.00 | 0.00 | 50 | 1014.0 |
| 20260507060502 | 12 | 0 | 4.8 | 8.0 | 0.00 | 0.00 | 0.00 | 51 | 1014.0 |
| 20260507060002 | 12 | 0 | 3.2 | 8.0 | 0.00 | 0.00 | 0.00 | 51 | 1013.9 |
| 20260507055502 | 12 | 0 | 4.8 | 8.0 | 0.00 | 0.00 | 0.00 | 51 | 1013.8 |
| 20260507055002 | 12 | 0 | 3.2 | 4.8 | 0.00 | 0.00 | 0.00 | 52 | 1013.7 |
| 20260507054501 | 12 | 0 | 0.0 | 4.8 | 0.00 | 0.03 | 0.00 | 52 | 1013.8 |
| 20260507054001 | 11 | 0 | 1.6 | 4.8 | 0.00 | 0.03 | 0.00 | 53 | 1013.7 |
| 20260507053724 | 11 | 0 | 3.2 | 11.3 | 0.00 | 0.03 | 0.00 | 53 | 1013.7 |
| 20260507053002 | 11 | 0 | 8.0 | 11.3 | 0.00 | 0.03 | 0.00 | 54 | 1013.6 |
| 20260507052719 | 11 | 0 | 0.0 | 6.4 | 0.00 | 0.05 | 0.00 | 55 | 1013.6 |
| 20260507052001 | 11 | 0 | 1.6 | 6.4 | 0.00 | 0.15 | 0.00 | 55 | 1013.5 |
| 20260507051718 | 11 | 0 | 3.2 | 6.4 | 0.00 | 0.25 | 0.00 | 56 | 1013.5 |
| 20260507051001 | 11 | 0 | 3.2 | 4.8 | 0.00 | 0.38 | 0.00 | 56 | 1013.4 |
| 20260507050501 | 11 | 69 | 3.2 | 4.8 | 0.00 | 0.46 | 0.00 | 57 | 1013.4 |
| 20260507045959 | 11 | 80 | 0.0 | 0.0 | 0.00 | 0.48 | 0.00 | 57 | 1013.3 |
| 20260507045500 | 11 | 80 | 0.0 | 0.0 | 0.00 | 0.48 | 0.00 | 57 | 1013.3 |
| 20260507045232 | 11 | 80 | 0.0 | 0.0 | 0.00 | 0.51 | 0.00 | 57 | 1013.2 |
| 20260507044500 | 11 | 83 | 0.0 | 0.0 | 0.00 | 0.51 | 0.00 | 57 | 1013.2 |
| 20260507044000 | 11 | 80 | 0.0 | 0.0 | 0.00 | 0.51 | 0.00 | 57 | 1013.2 |
| 20260507043727 | 11 | 78 | 0.0 | 3.2 | 0.00 | 0.51 | 0.00 | 57 | 1013.1 |
| 20260507043219 | 10 | 62 | 1.6 | 3.2 | 0.00 | 0.53 | 0.00 | 57 | 1013.0 |
| 20260507042500 | 11 | 62 | 0.0 | 3.2 | 0.00 | 0.56 | 0.00 | 57 | 1013.0 |
| 20260507041959 | 11 | 66 | 0.0 | 0.0 | 0.00 | 0.58 | 0.00 | 57 | 1012.9 |
| 20260507041459 | 11 | 330 | 0.0 | 0.0 | 0.00 | 0.58 | 0.00 | 57 | 1012.8 |
| 20260507040959 | 11 | 331 | 0.0 | 0.0 | 0.00 | 0.61 | 0.00 | 57 | 1012.9 |
| 20260507040459 | 11 | 331 | 0.0 | 0.0 | 0.00 | 0.61 | 0.00 | 57 | 1012.9 |
| 20260507040000 | 11 | 331 | 0.0 | 1.6 | 0.00 | 0.61 | 0.00 | 57 | 1012.8 |
| 20260507035459 | 11 | 331 | 0.0 | 1.6 | 0.00 | 0.61 | 0.00 | 57 | 1012.8 |
| 20260507034959 | 11 | 331 | 0.0 | 3.2 | 0.00 | 0.64 | 0.00 | 57 | 1012.7 |
| 20260507034719 | 11 | 331 | 1.6 | 3.2 | 0.00 | 0.64 | 0.00 | 57 | 1012.6 |
| 20260507033959 | 11 | 0 | 0.0 | 4.8 | 0.00 | 0.66 | 0.00 | 57 | 1012.6 |
| 20260507033458 | 11 | 331 | 0.0 | 4.8 | 0.00 | 0.69 | 0.00 | 57 | 1012.7 |
| 20260507032957 | 11 | 0 | 1.6 | 4.8 | 0.00 | 0.69 | 0.00 | 57 | 1012.5 |
| 20260507032457 | 11 | 0 | 1.6 | 4.8 | 0.00 | 0.71 | 0.00 | 57 | 1012.5 |
| 20260507032220 | 11 | 0 | 3.2 | 4.8 | 0.00 | 0.71 | 0.00 | 57 | 1012.5 |
| 20260507031457 | 11 | 0 | 1.6 | 6.4 | 0.00 | 0.71 | 0.00 | 57 | 1012.6 |
| 20260507030956 | 11 | 0 | 1.6 | 6.4 | 0.00 | 0.71 | 0.00 | 57 | 1012.5 |
| 20260507030457 | 11 | 0 | 3.2 | 8.0 | 0.00 | 0.71 | 0.00 | 57 | 1012.5 |
| 20260507025956 | 11 | 0 | 3.2 | 9.7 | 0.00 | 0.71 | 0.00 | 57 | 1012.5 |
| 20260507025457 | 11 | 0 | 4.8 | 9.7 | 0.00 | 0.71 | 0.00 | 57 | 1012.4 |
| 20260507024955 | 11 | 0 | 6.4 | 8.0 | 0.00 | 0.71 | 0.00 | 57 | 1012.4 |
| 20260507024456 | 11 | 0 | 4.8 | 8.0 | 0.00 | 0.71 | 0.00 | 57 | 1012.5 |
| 20260507023956 | 11 | 0 | 3.2 | 11.3 | 0.00 | 0.71 | 0.00 | 57 | 1012.5 |
| 20260507023456 | 12 | 0 | 6.4 | 14.5 | 0.00 | 0.71 | 0.00 | 56 | 1012.4 |
| 20260507022955 | 12 | 0 | 11.3 | 14.5 | 0.00 | 0.71 | 0.00 | 56 | 1012.5 |
| 20260507022456 | 12 | 0 | 8.0 | 9.7 | 0.00 | 0.71 | 0.00 | 56 | 1012.4 |
| 20260507021955 | 12 | 0 | 4.8 | 16.1 | 0.00 | 0.71 | 0.00 | 56 | 1012.5 |
| 20260507021455 | 12 | 0 | 8.0 | 16.1 | 0.00 | 0.71 | 0.00 | 56 | 1012.5 |
| 20260507020955 | 12 | 0 | 9.7 | 14.5 | 0.00 | 0.71 | 0.00 | 56 | 1012.5 |
| 20260507020456 | 12 | 0 | 8.0 | 14.5 | 0.00 | 0.71 | 0.00 | 56 | 1012.5 |
| 20260507015955 | 12 | 0 | 9.7 | 14.5 | 0.00 | 0.71 | 0.00 | 56 | 1012.5 |
| 20260507015719 | 12 | 0 | 6.4 | 9.7 | 0.00 | 0.71 | 0.00 | 56 | 1012.5 |
| 20260507015223 | 12 | 0 | 6.4 | 9.7 | 0.00 | 0.71 | 0.00 | 56 | 1012.5 |
| 20260507014455 | 12 | 0 | 4.8 | 8.0 | 0.00 | 0.71 | 0.00 | 56 | 1012.4 |
| 20260507014219 | 12 | 0 | 4.8 | 8.0 | 0.00 | 0.71 | 0.00 | 56 | 1012.4 |